Regional Weather Roundup
Issued by NWS

Home | Current Version | Previous Version | Graphics & Text | Print | Product List | Glossary On
Versions: 1 2 3 4 5 6 7 8 9 10 11 12 13 14 15 16 17 18 19 20 21 22 23 24 25 26 27 28 29 30 31 32 33 34 35 36 37 38 39 40 41 42 43 44 45 46 47 48 49 50
000
ASUS43 KDTX 012301
RWRMI
MICHIGAN HOURLY REGIONAL WEATHER ROUNDUP
NATIONAL WEATHER SERVICE DETROIT/PONTIAC MI
700 PM EDT SAT AUG 01 2015

NOTE: "FAIR" INDICATES FEW OR NO CLOUDS BELOW 12,000 FEET WITH NO
SIGNIFICANT WEATHER AND/OR OBSTRUCTION TO VISIBILITY.

MIZ047>049-052>055-059>063-066>070-074>076-081>083-020000-
SOUTHEAST LOWER MICHIGAN

CITY           SKY/WX    TMP DP  RH WIND       PRES   REMARKS
ADRIAN         SUNNY     79  53  40 W9        29.91S
ALMA           SUNNY     78  47  32 W13       29.87S
ANN ARBOR      SUNNY     80  50  34 NW14G23   29.88F
BAD AXE        SUNNY     77  53  42 W9        29.83F
CARO           MOSUNNY   79  53  40 W10G16    29.83S
DETROIT CITY   SUNNY     82  47  29 W13G21    29.85F
DETROIT        MOSUNNY   82  49  31 W13       29.87S
FLINT          SUNNY     82  47  29 W14       29.86S
GROSSE ILE     MOSUNNY   82  45  26 W10G20    29.86S
HILLSDALE      SUNNY     78  51  38 W14       29.93S
HOWELL         SUNNY     79  42  26 W16       29.88S

CITY           SKY/WX    TMP DP  RH WIND       PRES   REMARKS
JACKSON        SUNNY     77  53  43 W12G22    29.90F
LAMBERTVILLE   MOSUNNY   81  54  38 W9        29.90S
LANSING        SUNNY     80  47  31 W17G23    29.89S
LAPEER         FAIR      80  48  32 W10G16    29.85S
MASON          SUNNY     77  48  36 W16G22    29.89S
MONROE         SUNNY     81  53  37 W13       29.87F
MT. CLEMENS    MOSUNNY   81  49  32 W12G21    29.83F
PONTIAC        MOSUNNY   80  47  31 W16G24    29.86F
PORT HOPE        N/A     79  56  45 W7        29.81S
PORT HURON     MOSUNNY   79  52  38 W3        29.84S
TRI CITIES     SUNNY     81  49  32 W18       29.84S
MIDLAND        FAIR      81  48  31 W14       29.83S
TROY           SUNNY     82  45  27 W8G20     29.87F
SAGINAW HB     SUNNY     81  46  30 W12G17    29.83S
$$
MIZ043>046-050>051-056>058-064>065-071>073-077>080-020000-
SOUTHWEST LOWER MICHIGAN

CITY           SKY/WX    TMP DP  RH WIND       PRES   REMARKS
BATTLE CREEK   SUNNY     80  55  42 W13       29.92F
BENTON HARBOR  MOSUNNY   80  56  43 W6        29.90F
BIG RAPIDS     SUNNY     76  42  29 NW9G17    29.88S
COLDWATER      PTSUNNY   74  52  45 W8        29.93S
FREMONT        FAIR      78  46  31 W9        29.88F
HOLLAND        MOSUNNY   78  55  44 SW8       29.91F
GRAND RAPIDS   MOSUNNY   80  49  33 W16       29.90F
IONIA          FAIR      79  48  32 W15G22    29.88S
KALAMAZOO      CLOUDY    79  54  41 W10       29.92F
LUDINGTON      SUNNY     76  55  47 SW9       29.88F
MARSHALL       SUNNY     79  54  42 W13G18    29.91S
MOUNT PLEASANT SUNNY     81  47  31 W12G22    29.85F
MUSKEGON       MOSUNNY   79  52  38 W7        29.89F
SOUTH HAVEN    MOSUNNY   78  52  40 W5        29.91F
$$
MIZ016>042-020000-
NORTHERN LOWER MICHIGAN

CITY           SKY/WX    TMP DP  RH WIND       PRES   REMARKS
ALPENA         PTSUNNY   73  58  59 VRB3      29.82S
BEAVER ISLAND  MOSUNNY   74  57  55 SW10      29.82F
BELLAIRE       SUNNY     76  51  41 W6        29.84F
CADILLAC       SUNNY     76  50  39 W13       29.88S
CHARLEVOIX     SUNNY     75  56  52 SW8       29.86F
FRANKFORT      SUNNY     75  58  55 SW7       29.86S
GAYLORD        MOSUNNY   74  52  46 W13       29.86R
GRAYLING       MOSUNNY   77  50  38 W7        29.86S
HARBOR SPRINGS SUNNY     73  58  60 W7        29.83S
HOUGHTON LAKE  SUNNY     77  50  38 W13       29.86S
MANISTEE       SUNNY     75  52  43 SW6       29.88S
OSCODA         PTSUNNY   76  58  53 NE3       29.80S
PELLSTON       SUNNY     75  54  47 W13G18    29.83S
ROGERS CITY    MOSUNNY   71  63  74 N7        29.82S
TRAVERSE CITY  MOSUNNY   80  50  34 W15       29.83S
$$
MIZ007>008-015-020000-
EASTERN UPPER MICHIGAN

CITY           SKY/WX    TMP DP  RH WIND       PRES   REMARKS
KINROSS        PTSUNNY   70  61  73 S5        29.81R
MACKINAC ISLAN   N/A     71  61  70 SW10G22   29.81S
NEWBERRY       PTSUNNY   74  56  53 SW12      29.79S
S. S. MARIE    SUNNY     72  53  51 NW9       29.78F
MUNISING         N/A     74  62  66 N3        29.80S
$$
MIZ004>006-011>014-085-020000-
CENTRAL UPPER MICHIGAN

CITY           SKY/WX    TMP DP  RH WIND       PRES   REMARKS
ESCANABA       MOSUNNY   81  48  32 W15       29.78S
MENOMINEE      SUNNY     81  48  32 W5        29.82S
SAWYER-GWINN   MOSUNNY   77  46  33 W15G22    29.82S
$$
MIZ001>003-009>011-084-020000-
WESTERN UPPER MICHIGAN

CITY           SKY/WX    TMP DP  RH WIND       PRES   REMARKS
IRON MOUNTAIN  PTSUNNY   80  49  33 W10       29.82F
HOUGHTON       SUNNY     75  50  41 W17G25    29.77F
COPPER HARBOR    N/A     76  50  40 VRB5      29.75F
IRONWOOD       SUNNY     77  54  44 W9        29.79F
$$

ABBREVIATIONS USED IN REMARKS
   TC - TEMPERATURE IN CELSIUS
  WCI - WIND CHILL INDEX
   HX - HEAT INDEX
  VSB - VISIBILITY




USA.gov is the U.S. government's official web portal to all federal, state and local government web resources and services.